www.pogodaiklimat.ru

Погода и климат >> Архив погоды >> Россия >> Хабаровский край >> Урми


ПОГОДА в Урми

  • Прогноз погоды в Урми
  • Монитор погоды в Урми

АРХИВ ПОГОДЫ в Урми

Время (UTC), дата Ветер
(напр.,м/с)
 
Видим.   Явления Облачность Т
(С)
Тd
(С)
f
(%)
Тe
(С)
Тes
(С)
Комфортность P
(гПа)
Po
(гПа)
Тmin
(С)
Tmax
(С)
R
(мм)
R24
(мм)
S
(см)
18 11.04 штиль 0 50 км ясно -7.1 -9.0 86 -8 -8 1010.7 985.4
21 11.04 штиль 0 50 км ясно -9.0 -9.9 93 -10 -9 1011.5 986.0 -9.2
00 12.04 штиль 0 50 км ясно +5.6 -8.4 36 +6 +15 опасность
простуды
1010.0 985.8
03 12.04 В 2 50 км ясно +15.4 -10.0 16 +16 +29 опасность
простуды
1007.1 983.8
06 12.04 З 2 50 км 1/0
[Ci fib]
+16.7 -12.9 12 +17 +25 1005.1 982.0
09 12.04 ЮЗ 1 50 км ясно +14.5 -12.3 14 +15 +16 1005.4 982.1 +17.1
12 12.04 штиль 0 50 км ясно 0.0 -8.4 53 -1 -1 1008.5 983.9
15 12.04 штиль 0 50 км ясно -3.5 -9.2 65 -4 -4 1008.8 983.9
18 12.04 штиль 0 50 км ясно -5.4 -7.7 84 -6 -6 1009.0 983.9
21 12.04 штиль 0 50 км ясно -7.0 -8.0 93 -8 -7 1009.1 983.9 -7.2
00 13.04 В 1 50 км 10/0
[Ci fib]
+5.4 -5.3 46 +5 +12 1006.1 982.0
03 13.04 Ю 3 50 км 10/0
[Ci sp]
+13.7 -5.4 26 +13 +22 1003.0 979.7
06 13.04 ЮЗ 2 20 км слаб. ливневой дождь 10/10 600 м
[Cb cap]
+6.7 +3.5 80 +5 +5 1004.0 980.1
09 13.04 СЗ 3
{14}
50 км {ливн. осадки} 10/10 600 м
[Sc]
+3.5 -3.2 62 0 0 1007.8 983.5 +15.7 0.4
12 13.04 СЗ 3 50 км {ливн. осадки} 3/3 600 м
[Sc]
+2.9 -5.3 55 -1 -1 1010.2 985.8
15 13.04 З 1 50 км ясно -0.9 -9.3 53 -2 -2 1011.9 987.1
18 13.04 З 1 50 км ясно -3.3 -9.1 64 -5 -5 1013.3 988.3
21 13.04 штиль 0 50 км ясно -7.0 -9.0 86 -8 -7 1014.4 989.0 -7.0
00 14.04 ЮВ 1 50 км 10/0
[Cs]
+5.2 -10.4 31 +5 +12 1013.6 989.3
03 14.04 ЮЗ 2 50 км 10/3 600 м
[Cu hum Cs]
+8.5 -16.0 16 +8 +15 1010.9 986.9
06 14.04 Ю 2 50 км 10/10 600 м
[Sc]
+8.2 -8.3 30 +7 +7 1009.9 986.0
09 14.04 С 1 50 км 10/8 600 м
[Sc Ci fib]
+6.8 -6.8 37 +7 +7 1009.4 985.4 +9.9
12 14.04 штиль 0 50 км 9/9 600 м
[Sc]
+0.1 -4.1 73 -1 -1 1011.2 986.5
15 14.04 штиль 0 50 км ясно -3.3 -5.6 84 -4 -4 1011.0 986.1
18 14.04 штиль 0 50 км 9/9 600 м
[Sc]
-4.3 -5.6 91 -5 -5 1010.7 985.7
21 14.04 штиль 0 50 км 9/9 600 м
[Sc]
-3.1 -4.5 90 -4 -4 1009.9 985.1 -4.9
00 15.04 В 1 50 км 10/3 600 м
[Sc Ac trans Ci fib]
+5.3 -5.9 44 +5 +8 1008.6 984.5
03 15.04 ЮВ 2 50 км 10/6 600 м
[Sc Ac trans Ci fib]
+13.2 -8.0 22 +13 +16 1005.5 982.1
06 15.04 ЮЗ 2 50 км 9/3 600 м
[Sc Ac trans Ci fib]
+14.7 -7.9 20 +15 +18 1003.3 980.1
09 15.04 Ю 1 50 км ясно +12.9 -7.5 23 +14 +14 1002.9 979.5 +15.3
12 15.04 штиль 0 50 км ясно +1.1 -6.7 56 +1 +1 1005.4 981.0
15 15.04 ЮЗ 1 50 км 3/0
[Ci fib]
-2.7 -7.2 71 -5 -5 1005.1 980.4
18 15.04 ЮЗ 1 50 км 10/0
[Ci fib]
-2.7 -5.8 79 -5 -5 1004.1 979.4
21 15.04 СЗ 1 50 км 9/4 600 м
[Sc Ac trans Ci fib]
-2.0 -4.7 82 -4 -4 1003.5 978.9 -3.1
00 16.04 В 1 50 км 3/0
[Ci fib]
+10.7 -3.3 37 +11 +19 1000.6 977.1
03 16.04 ЮВ 3 50 км 10/0
[Ci sp]
+17.4 -2.9 25 +17 +27 997.3 974.5
06 16.04 Ю 2 50 км 10/6 600 м
[Sc Ci sp]
+18.9 -3.2 22 +19 +22 993.8 971.2
09 16.04 Ю 1 50 км 10/1 600 м
[Sc Ci sp]
+18.2 -2.2 25 +19 +20 993.0 970.3 +20.0
12 16.04 З 2
{10}
50 км 10/3 600 м
[Sc Ci sp]
+12.4 -5.1 29 +12 +12 998.5 975.2
15 16.04 СЗ 2 50 км 10/0
[Ci sp]
+7.8 -7.7 32 +7 +7 1001.4 977.7
18 16.04 З 1 50 км 10/0
[Ci sp]
+2.2 -8.5 45 +1 +1 1004.3 980.0
21 16.04 З 2 50 км 10/9 600 м
[Sc Ci fib]
+1.6 -10.0 42 -1 -1 1005.3 980.9 +0.4
00 17.04 З 3 50 км 8/0
[Ac trans Ci fib]
+7.5 -15.0 18 +6 +11 1005.5 981.6
03 17.04 С 1 50 км 10/0
[Ac und]
+10.2 -16.6 13 +11 +16 1003.8 980.2
06 17.04 СВ 1 50 км 10/0
[Cs]
+11.8 -14.6 14 +12 +20 1001.0 977.6
09 17.04 штиль 0 50 км 10/8 600 м
[Sc Ac und]
+11.0 -12.3 18 +11 +11 999.1 975.7 +12.3
12 17.04 штиль 0 50 км 10/0
[As op]
+3.4 -8.5 41 +3 +3 998.7 974.7
15 17.04 штиль 0 50 км 10/0
[As op]
+0.9 -7.6 53 0 0 996.7 972.5
18 17.04 штиль 0 50 км 10/0
[As op]
-0.8 -6.1 67 -2 -2 994.0 969.7
21 17.04 штиль 0 50 км 10/9 600 м
[Sc Ci sp]
-0.9 -4.8 75 -2 -2 992.5 968.2 -1.4
00 18.04 штиль 0 10 км дождь 10/0 600 м
[As op]
+4.4 +2.6 88 +3 +5 992.3 968.5
03 18.04 ЮВ 1 10 км слаб. дождь 10/10 300 м
[Frnb Ns]
+4.2 +2.8 91 +3 +3 993.4 969.6
06 18.04 ЮВ 1 10 км слаб. дождь 10/10 100 м
[Frnb Ns]
+3.8 +2.9 94 +2 +2 995.5 971.6
09 18.04 З 1 4000 м слаб. снег {дождь} 10/10 100 м
[Frnb Ns]
+0.2 -0.8 93 -2 -2 999.1 974.8 +5.8 4
12 18.04 СЗ 4 10 км слаб. ливневой снег 10/10 600 м
[Cb cap]
-0.2 -4.6 72 -5 -5 1002.1 977.7

 

Местоположение метеостанции Урми (Хабаровский край, Россия): широта 49.40 долгота 133.20 высота над уровнем моря 201 м.

В архиве по умолчанию представлена погода в Урми за последнюю неделю. Архивные данные за месяц целиком и за предыдущие месяцы, начиная с января 2011 года, Вы можете получить, выбрав интересующий диапазон дат из раскрывающегося списка и нажав кнопку "Ввод!".


*Определитесь, кто Вы:
робот инопланетянин человек

Внимание! Время в таблицах - всемирное. Для получения местного времени необходимо прибавить поправку, которая равна 10 ч.

Смотрите также архив погоды в соседних городах и на ближайших метеорологических станциях:

Погода в Верховье Урми (Хабаровский край, Россия) (75 км)
Погода в Биробиджане (Еврейская автономная область, Россия) (78 км)
Погода в Смидовиче (Еврейская автономная область, Россия) (99 км)
Погода в Сутуре (Хабаровский край, Россия) (109 км)
Погода в Куре (Хабаровский край, Россия) (117 км)
Погода в Хабаровск Центре (Еврейская автономная область, Россия) (121 км)
Погода в Литовко (Хабаровский край, Россия) (139 км)
Погода на Хабаровск Мосту (Хабаровский край, Россия) (164 км)
Погода в Облучье (Еврейская автономная область, Россия) (166 км)
Погода в Хабаровске АМС (Хабаровский край, Россия) (167 км)

Пояснения к столбцам:

Ветер - указаны скорость ветра в м/с - средняя за 10 мин, порывы в срок и между сроками (в фигурных скобках) и направление, откуда дует ветер: С - северный, СВ - северо-восточный, В - восточный, ЮВ - юго-восточный, Ю - южный, ЮЗ - юго-западный, З - западный, СЗ - северо-западный.
Видимость - горизонтальная дальность видимости в метрах или километрах. При видимости от 1 до 10 км при отсутствии осадков обычно наблюдается дымка, при ухудшении видимости до 1 км и менее - туман. В сухую погоду видимость может ухудшаться дымом, пылью или мглою.
Явления - указаны атмосферные явления, наблюдавшиеся в срок или в последний час перед сроком; фигурными скобками обозначены явления, наблюдавшиеся между сроками (за 1-3 часа до срока); квадратными скобками обозначены град или гололедные отложения с указанием их диаметра в мм.
Облачность - указаны через наклонную черту общая и нижняя облачность в баллах и высота нижней границы облаков в метрах; квадратными скобками обозначены формы облаков: Ci - перистые, Cs - перисто-слоистые, Cc - перисто-кучевые, Ac - высококучевые, As - высокослоистые, Sc - слоисто-кучевые, Ns - слоисто-дождевые, Cu - кучевые, Cb - кучево-дождевые. Подробнее классификацию облаков см. в Атласе облаков (PDF).
T - Температура воздуха - температура, измеренная на высоте 2 м над землей.
Td - Температура точки росы - температура, при понижении до которой содержащийся в воздухе водяной пар достигнет насыщения.
f - Относительная влажность воздуха - влажноcть воздуха, измеренная на высоте 2 м над землей.
Te - Эффективная температура - температура, которую ощущает одетый по сезону человек в тени. Характеристика душности погоды. При расчете учитывается влияние влажности воздуха и скорости ветра на теплоощущения человека.
Tes - Эффективная температура на солнце - температура, которую ощущает человек, с поправкой на солнечный нагрев. Характеристика знойности погоды. Зависит от высоты солнца над горизонтом, облачности и скорости ветра. Ночью, в пасмурную погоду, а также при ветре 12 м/с и более поправка равна нулю.
P - Атмосферное давление - приведенное к уровню моря атмосферное давление.
Po - Атмосферное давление - измеренное на уровне метеостанции атмосферное давление.
Tmin - Минимальная температура - минимум температуры воздуха на высоте 2 м над землей.
Tmax - Максимальная температура - максимум температуры воздуха на высоте 2 м над землей.
R - Количество осадков - Количество выпавших осадков за период времени, мм. При наведении курсора мыши на число - период времени, за который выпало указанное количество осадков.
R24 - Количество осадков - Количество выпавших осадков за 24 часа, мм.
S - Снежный покров - Высота снежного покрова, см. При наведении курсора мыши на число - состояние снежного покрова и степень покрытия местности в баллах.